Location: Earls Croome
(52.0667°N, 2.2000°W)
Time: 00:51:04
(UTC+00:00)

USA 116 - Pass Details

Date: 17 November 2019
Orbit: 405 x 834 km, 97.9° (Epoch: 18 November)

Event Time Altitude Azimuth Distance (km) Brightness Sun altitude
Rises 05:41:39 0° 173° (S) 2,370 7.2 -16.6°
Reaches altitude 10° 05:43:34 10° 177° (S) 1,541 6.2 -16.3°
Maximum altitude 05:46:48 61° 258° (WSW) 532 3.3 -15.8°
Enters shadow 05:49:51 14° 338° (NNW) 1,480 5.6 -15.4°
